Regional Weather Roundup
Issued by NWS

Home | Current Version | Previous Version | Text Only | Print | Product List | Glossary Off
Versions: 1 2 3 4 5 6 7 8 9 10 11 12 13 14 15 16 17 18 19 20 21 22 23 24 25 26 27 28 29 30 31 32 33 34 35 36 37 38 39 40 41 42 43 44 45 46 47 48 49 50

000
ASUS43 KLOT 202308
RWRIL

ILLINOIS REGIONAL WEATHER ROUNDUP
NATIONAL WEATHER SERVICE CHICAGO/ROMEOVILLE IL
600 PM CDT FRI APR 20 2018

NOTE: "FAIR" INDICATES FEW OR NO CLOUDS BELOW 12,000 FEET WITH NO
SIGNIFICANT WEATHER AND/OR OBSTRUCTIONS TO VISIBILITY.

* THESE STATIONS ARE NOT UNDER NWS QUALITY CONTROL. THEY ALSO MAY NOT
  REPORT WEATHER SUCH AS PRECIPITATION OR FOG.

ILZ001-002-007-009-015-016-024-210000-
NORTHWEST ILLINOIS

CITY           SKY/WX    TMP DP  RH WIND       PRES   REMARKS
MOLINE         FAIR      61  17  18 SE8       30.37F
STERLING*      FAIR      59  19  21 VRB5      30.40F
SAVANNA*       FAIR      59  21  22 SW6       30.40S
$$

ILZ003-004-008-010-011-017-018-210000-
NORTH CENTRAL ILLINOIS

CITY           SKY/WX    TMP DP  RH WIND       PRES   REMARKS
ROCKFORD       PTSUNNY   58  18  21 CALM      30.42F
FREEPORT*      FAIR      57  19  22 CALM      30.43S
ROCHELLE*      FAIR      58  20  22 CALM      30.41F
DE KALB*       FAIR      58  22  24 E3        30.41F
PERU*          FAIR      63  23  21 E6        30.40F
$$

ILZ005-006-012>014-019>023-210000-
NORTHEAST ILLINOIS

CITY           SKY/WX    TMP DP  RH WIND       PRES   REMARKS
CHICAGO-OHARE  FAIR      56  11  16 E14       30.42F
CHICAGO-MIDWAY PTSUNNY   56  11  16 E15       30.44F
AURORA         FAIR      60  16  18 CALM      30.40F
LANSING*       FAIR      54  21  28 E12       30.44F
JOLIET*        FAIR      61  19  20 NE7       30.41F
WAUKEGAN       FAIR      49  16  26 E9        30.44F
DUPAGE AIRPORT FAIR      60  13  15 CALM      30.40F
KANKAKEE*      FAIR      61  18  19 E6        30.42F
WHEELING       FAIR      56  13  18 E8        30.45F
MORRIS*        FAIR      60  17  18 CALM      30.40F
ROMEOVILLE*    FAIR      58  22  24 E13       30.41F
NORTHERLY ISL    N/A     45  30  56 E5          N/A
$$

LMZ740>746-210000-
SOUTHERN LAKE MICHIGAN

STATION/POSITION SKY/WX   TEMP    WIND        PRES    VSBY  WAVE
                          AIR SEA DIR/SP/G                  HT/PER
                          (F)     (DEG/KT/KT) (MB)    (MI)  (FT/S)
HARRISON CRIB              45     100/ 13/ 13   N/A
BURNHAM HARBOR             44      70/  5       N/A
CALUMET HARBOR             46      70/  8/ 11 1030.4F
BURNS HARBOR               46      70/  7/  7 1032.2F
MICHIGAN CITY              41      30/  4/  5   N/A
$$

ILZ025>027-034>036-040-047-049-050-058-095>099-210000-
WEST-CENTRAL ILLINOIS

CITY           SKY/WX    TMP DP  RH WIND       PRES   REMARKS
QUINCY         MOSUNNY   60  19  20 E14       30.35F
GALESBURG*     FAIR      62  23  22 E6        30.39F
MACOMB*        CLOUDY    59  18  20 SE9       30.39F
JACKSONVILLE*  MOSUNNY   59  21  23 E13G18    30.37F
PITTSFIELD*    MOSUNNY   61  24  24 E9        30.37F
$$

ILZ028>032-037-038-041>044-048-051>054-059>061-210000-
CENTRAL ILLINOIS

CITY           SKY/WX    TMP DP  RH WIND       PRES   REMARKS
PONTIAC        FAIR      62  20  20 E7        30.41F
BLOOMINGTON    FAIR      60  21  22 E9        30.40F
DECATUR        FAIR      60  20  21 E12       30.38F
PEORIA         FAIR      61  23  23 E8        30.38F
LACON*         FAIR      61  22  22 SE8       30.38F
LINCOLN*       FAIR      62  22  21 E9        30.38F
SPRINGFIELD    FAIR      62  19  19 E9        30.38F
TAYLORVILLE    FAIR      60  18  19 E10       30.38F
$$

ILZ033-039-045-046-055>057-062-063-210000-
EAST-CENTRAL ILLINOIS

CITY           SKY/WX    TMP DP  RH WIND       PRES   REMARKS
CHAMPAIGN      FAIR      60  20  21 E12G20    30.40F
DANVILLE*      FAIR      59  21  23 E6        30.39F
RANTOUL*       FAIR      62  21  20 E9        30.40F
MATTOON        FAIR      60  19  20 NE12      30.38F
PARIS*         FAIR      60  28  29 E9G17     30.40F
$$

ILZ079-100>102-210000-
SOUTHWEST ILLINOIS

CITY           SKY/WX    TMP DP  RH WIND       PRES   REMARKS
ALTON          MOSUNNY   59  28  31 SE10      30.37F
BELLEVILLE     CLOUDY    61  23  23 E7        30.35F
CAHOKIA*       CLOUDY    62  23  22 E8        30.36F
SPARTA*        CLOUDY    59  29  31 E13       30.37S
$$

ILZ064>066-069>071-074>076-080>082-084>086-088>090-092>094-210000-
SOUTH-CENTRAL ILLINOIS

CITY           SKY/WX    TMP DP  RH WIND       PRES   REMARKS
CARBONDALE     FAIR      62  25  24 E12       30.35F
CAIRO*         FAIR      64  28  26 NE9       30.32F
EFFINGHAM*     FAIR      61  26  27 NE8       30.40S
MARION         MOSUNNY   61  23  23 SE12      30.36F
MT. VERNON     FAIR      62  26  25 E9        30.37F
CENTRALIA*     CLOUDY    63  28  26 E8        30.36F
SALEM*         FAIR      62  21  20 NE9G16    30.38S
METROPOLIS*    FAIR      63  28  26 NE5       30.34F
$$

ILZ067-068-072-073-078-083-087-091-210000-
SOUTHEAST ILLINOIS

CITY           SKY/WX    TMP DP  RH WIND       PRES   REMARKS
LAWRENCEVILLE  FAIR      64  18  17 NE9       30.39F
FLORA*         FAIR      64  22  20 NE9       30.38F
FAIRFIELD*     FAIR      61  26  25 NE6       30.37S
HARRISBURG*    FAIR      61  33  34 CALM      30.37S
ROBINSON*      FAIR      60  23  24 NE9       30.40F
CARMI*         FAIR      62  28  28 NE9       30.37F
$$

ABBREVIATIONS USED IN REMARKS
   TC - TEMPERATURE IN CELSIUS
  WCI - WIND CHILL INDEX
   HX - HEAT INDEX
  VSB - VISIBILITY
$$





USA.gov is the U.S. government's official web portal to all federal, state and local government web resources and services.